Flag for U.S.A. Weather past 2 weeks in San Luis Obispo, California, U.S.A.

62 °F


Feels Like: 62 °F
Forecast: 60 / 72 °F
Wind: 10 mph from Northwest

Location: San Luis Obispo County-Mc Chesney Field

Current Time: Oct 3, 2015 at 10:09:02 PM

Latest Report: Oct 3, 2015 at 8:56 PM

Visibility: 10 mi

Pressure: 29.57 "Hg

Humidity: 70%

Dew point: 52 °F

Location of San Luis ObispoLocation

Historic Weather in San Luis Obispo — Graph


San Luis Obispo temperature yesterday

Maximum temperature yesterday: 83 °F (at 12:56 PM)
Minimum temperature yesterday: 63 °F (at 12:56 AM)
Average temperature yesterday: 72 °F

Past Weeks' High & Low Weather Summary

High101 °F (Sep 24, 12:56 PM)93% (Sep 28, 7:56 AM)30.00 "Hg (Sep 28, 7:56 AM)
Low58 °F (Sep 26, 6:56 AM)11% (Sep 24, 12:56 PM)29.57 "Hg (Oct 3, 4:56 PM)
Average71 °F61%29.85 "Hg
* Reported Sep 18 7:56 PM — Oct 3 7:56 PM, San Luis Obispo, Weather by CustomWeather, © 2015

Note: Actual official high and low records may vary slightly from our data, if they occured in-between our weather recording intervals... More about our weather records


San Luis Obispo weather history for previous 24 hours

Time TempWeatherWind HumidityBarometerVisibility
7:56 PM
Sat, Oct 3
63 °FOvercast.8 mph73%29.58 "Hg10 mi
6:57 PM63 °FOvercast.16 mph73%29.58 "Hg10 mi
5:58 PM64 °FBroken clouds.14 mph73%29.58 "Hg9 mi
4:56 PM66 °FSunny.17 mph68%29.57 "Hg10 mi
3:56 PM70 °FPassing clouds.16 mph59%29.58 "Hg10 mi
2:56 PM72 °FSunny.21 mph57%29.60 "Hg10 mi
1:56 PM75 °FSunny.18 mph52%29.60 "Hg10 mi
12:56 PM75 °FSunny.17 mph52%29.63 "Hg10 mi
11:56 AM74 °FSunny.7 mph56%29.66 "Hg10 mi
10:56 AM70 °FSunny.6 mph64%29.68 "Hg10 mi
9:56 AM66 °FPassing clouds.6 mph73%29.70 "Hg10 mi
8:56 AM61 °FLow clouds.8 mph90%29.72 "Hg7 mi
7:56 AM60 °FLow clouds.12 mph90%29.72 "Hg7 mi
6:56 AM59 °FLow clouds.7 mph93%29.72 "Hg7 mi
6:03 AM58 °FFog.3 mph93%29.73 "Hg1 mi
5:56 AM59 °FFog.5 mph93%29.72 "Hg1 mi
4:56 AM59 °FFog.5 mph93%29.73 "Hg0 mi
3:56 AM59 °FFog.No wind93%29.75 "Hg0 mi
2:56 AM59 °FFog.No wind87%29.77 "Hg6 mi
12:56 AM61 °FClear.No wind87%29.80 "Hg9 mi
Weather by CustomWeather, © 2015

See weather overviewHow to use our weather pages